2023/01/26 00:00:00,63.5,-9.4
2023/01/26 00:10:00,63.4,-9.9
2023/01/26 00:20:00,63.2,-9.5
2023/01/26 00:30:00,62.9,-9.9
2023/01/26 00:40:00,62.5,-10.6
2023/01/26 00:50:00,62.3,-10.6
2023/01/26 01:00:00,62.0,-9.8
2023/01/26 01:10:00,61.8,-10.3
2023/01/26 01:20:00,61.7,-10.1
2023/01/26 01:30:00,61.6,-10.4
2023/01/26 01:40:00,61.6,-9.9
2023/01/26 01:50:00,61.6,-9.9
2023/01/26 02:00:00,61.4,-9.8
2023/01/26 02:10:00,61.4,-10.0
2023/01/26 02:20:00,61.3,-9.4
2023/01/26 02:30:00,61.1,-9.9
2023/01/26 02:40:00,61.0,-8.9
2023/01/26 02:50:00,60.9,-8.9
2023/01/26 03:00:00,60.9,-8.9
2023/01/26 03:10:00,60.6,-8.8
2023/01/26 03:20:00,60.5,-8.4
2023/01/26 03:30:00,60.4,-8.1
2023/01/26 03:40:00,60.3,-7.8
2023/01/26 03:50:00,60.4,-7.8
2023/01/26 04:00:00,60.3,-6.8
2023/01/26 04:10:00,60.3,-7.2
2023/01/26 04:20:00,60.3,-6.6
2023/01/26 04:30:00,60.3,-6.9
2023/01/26 04:40:00,60.2,-6.7
2023/01/26 04:50:00,60.1,-6.7
2023/01/26 05:00:00,60.0,-6.7
2023/01/26 05:10:00,59.9,-6.8
2023/01/26 05:20:00,59.9,-6.8
2023/01/26 05:30:00,60.2,-6.8
2023/01/26 05:40:00,60.3,-6.9
2023/01/26 05:50:00,60.2,-7.1
2023/01/26 06:00:00,60.0,-8.2
2023/01/26 06:10:00,60.0,-6.7
2023/01/26 06:20:00,59.8,-7.4
2023/01/26 06:30:00,59.7,-7.0
2023/01/26 06:40:00,59.6,-7.3
2023/01/26 06:50:00,59.6,-6.8
2023/01/26 07:00:00,59.8,-6.9
2023/01/26 07:10:00,59.8,-7.0
2023/01/26 07:20:00,59.7,-6.8
2023/01/26 07:30:00,59.6,-7.2
2023/01/26 07:40:00,59.5,-7.3
2023/01/26 07:50:00,59.5,-6.9
2023/01/26 08:00:00,59.4,-6.2
2023/01/26 08:10:00,59.4,-6.0
2023/01/26 08:20:00,59.4,-6.2
2023/01/26 08:30:00,59.4,-5.5
2023/01/26 08:40:00,59.2,-5.6
2023/01/26 08:50:00,59.2,-5.8
2023/01/26 09:00:00,59.1,-5.7
2023/01/26 09:10:00,58.9,-4.8
2023/01/26 09:20:00,58.6,-4.4
2023/01/26 09:30:00,58.5,-3.2
2023/01/26 09:40:00,58.4,-3.5
2023/01/26 09:50:00,58.2,-3.4
2023/01/26 10:00:00,58.4,-3.2
2023/01/26 10:10:00,58.4,-2.5
2023/01/26 10:20:00,58.1,-1.5
2023/01/26 10:30:00,58.1,-1.5
2023/01/26 10:40:00,58.3,-1.7
2023/01/26 10:50:00,58.2,-0.5
2023/01/26 11:00:00,58.3,-1.5
2023/01/26 11:10:00,58.1,-0.9
2023/01/26 11:20:00,57.8,-0.1
2023/01/26 11:30:00,57.6, 0.1
2023/01/26 11:40:00,57.6, 0.0
2023/01/26 11:50:00,57.7, 0.7
2023/01/26 12:00:00,57.6, 0.3
2023/01/26 12:10:00,57.3,-0.2
2023/01/26 12:20:00,57.0,-0.7
2023/01/26 12:30:00,56.8,-0.9
2023/01/26 12:40:00,56.8,-0.6
2023/01/26 12:50:00,56.9,-0.6
2023/01/26 13:00:00,56.7,-0.2
2023/01/26 13:10:00,56.6,-0.8
2023/01/26 13:20:00,56.6,-1.2
2023/01/26 13:30:00,56.7,-1.7
2023/01/26 13:40:00,56.6,-1.2
2023/01/26 13:50:00,56.6,-0.8
2023/01/26 14:00:00,56.7,-1.1
2023/01/26 14:10:00,56.8,-1.2
2023/01/26 14:20:00,56.9,-0.8
2023/01/26 14:30:00,56.8,-1.5
2023/01/26 14:40:00,56.7,-1.8
2023/01/26 14:50:00,56.7,-1.7
2023/01/26 15:00:00,56.7,-1.6
2023/01/26 15:10:00,56.7,-1.6
2023/01/26 15:20:00,56.7,-1.4
2023/01/26 15:30:00,56.6,-1.6
2023/01/26 15:40:00,56.6,-1.9
2023/01/26 15:50:00,56.5,-2.0
2023/01/26 16:00:00,56.4,-2.2
2023/01/26 16:10:00,56.3,-2.1
2023/01/26 16:20:00,56.1,-2.1
2023/01/26 16:30:00,55.9,-2.3
2023/01/26 16:40:00,55.7,-2.8
2023/01/26 16:50:00,55.8,-2.7
2023/01/26 17:00:00,55.7,-2.7
2023/01/26 17:10:00,55.6,-2.6
2023/01/26 17:20:00,55.6,-2.6
2023/01/26 17:30:00,55.6,-2.9
2023/01/26 17:40:00,55.4,-3.3
2023/01/26 17:50:00,55.3,-3.5
2023/01/26 18:00:00,55.2,-3.2
2023/01/26 18:10:00,55.2,-3.6
2023/01/26 18:20:00,55.0,-4.1
2023/01/26 18:30:00,54.9,-3.9
2023/01/26 18:40:00,54.9,-3.8
2023/01/26 18:50:00,54.7,-3.9
2023/01/26 19:00:00,54.7,-3.6
2023/01/26 19:10:00,54.7,-3.8
2023/01/26 19:20:00,54.6,-3.5
2023/01/26 19:30:00,54.5,-3.8
2023/01/26 19:40:00,54.3,-3.7
2023/01/26 19:50:00,54.2,-3.3
2023/01/26 20:00:00,54.1,-3.7
2023/01/26 20:10:00,54.0,-3.5
2023/01/26 20:20:00,54.0,-3.7
2023/01/26 20:30:00,53.9,-3.6
2023/01/26 20:40:00,53.8,-3.6
2023/01/26 20:50:00,53.7,-3.8
2023/01/26 21:00:00,53.7,-3.4
2023/01/26 21:10:00,53.6,-3.3
2023/01/26 21:20:00,53.6,-3.3
2023/01/26 21:30:00,53.7,-3.6
2023/01/26 21:40:00,53.7,-3.9
2023/01/26 21:50:00,53.5,-3.6
2023/01/26 22:00:00,53.3,-3.3
2023/01/26 22:10:00,53.1,-3.2
2023/01/26 22:20:00,53.0,-3.3
2023/01/26 22:30:00,52.9,-3.5
2023/01/26 22:40:00,52.8,-3.0
2023/01/26 22:50:00,52.7,-3.2
2023/01/26 23:00:00,52.7,-3.3
2023/01/26 23:10:00,52.7,-3.7
2023/01/26 23:20:00,52.6,-3.6
2023/01/26 23:30:00,52.6,-3.2
2023/01/26 23:40:00,52.5,-3.4
2023/01/26 23:50:00,52.3,-3.5
